• In France
  • List of Countries
  • For 7 days
  • Water Temperature
  • Satellite Maps
  • Weather Map
  • Weather Widgets
  • user-avatar
    Login

    Hourly Weather Asadabad

    Today, 20 September, Wednesday

    Time Temperature Precipitation Wind Pressure Humidity
    00:00 +22°C° 0 mm 1 mps 656 mmHg 30%
    01:00 +21°C° 0 mm 2 mps 656 mmHg 30%
    02:00 +21°C° 0 mm 2 mps 655 mmHg 30%
    03:00 +20°C° 0 mm 2 mps 655 mmHg 30%
    04:00 +20°C° 0 mm 2 mps 655 mmHg 31%
    05:00 +20°C° 0 mm 2 mps 655 mmHg 30%
    06:00 +23°C° 0 mm 2 mps 656 mmHg 28%
    07:00 +24°C° 0 mm 2 mps 657 mmHg 27%
    08:00 +26°C° 0 mm 1 mps 657 mmHg 25%
    09:00 +27°C° 0 mm 1 mps 657 mmHg 22%
    10:00 +29°C° 0 mm 2 mps 658 mmHg 19%
    11:00 +30°C° 0 mm 2 mps 658 mmHg 16%
    12:00 +30°C° 0 mm 2 mps 657 mmHg 16%
    13:00 +31°C° 0 mm 2 mps 657 mmHg 16%
    14:00 +33°C° 0 mm 3 mps 657 mmHg 15%
    15:00 +31°C° 0 mm 2 mps 657 mmHg 16%
    16:00 +31°C° 0 mm 2 mps 657 mmHg 17%
    17:00 +30°C° 0 mm 2 mps 656 mmHg 18%
    18:00 +28°C° 0 mm 2 mps 656 mmHg 22%
    19:00 +26°C° 0 mm 1 mps 656 mmHg 26%
    20:00 +23°C° 0 mm 1 mps 655 mmHg 31%
    21:00 +23°C° 0 mm 1 mps 655 mmHg 30%
    22:00 +23°C° 0 mm 1 mps 655 mmHg 29%
    23:00 +21°C° 0 mm 2 mps 655 mmHg 28%

    Tomorrow, 21 September, Thursday

    Time Temperature Precipitation Wind Pressure Humidity
    00:00 +21°C° 0 mm 2 mps 655 mmHg 28%
    01:00 +20°C° 0 mm 2 mps 655 mmHg 28%
    02:00 +20°C° 0 mm 2 mps 655 mmHg 28%
    03:00 +20°C° 0 mm 2 mps 655 mmHg 28%
    04:00 +19°C° 0 mm 2 mps 655 mmHg 28%
    05:00 +19°C° 0 mm 2 mps 655 mmHg 28%
    06:00 +21°C° 0 mm 2 mps 655 mmHg 26%
    07:00 +24°C° 0 mm 2 mps 656 mmHg 23%
    08:00 +25°C° 0 mm 2 mps 657 mmHg 21%
    09:00 +27°C° 0 mm 2 mps 657 mmHg 19%
    10:00 +28°C° 0 mm 2 mps 657 mmHg 17%
    11:00 +29°C° 0 mm 2 mps 657 mmHg 15%
    12:00 +30°C° 0 mm 2 mps 657 mmHg 15%
    13:00 +30°C° 0 mm 2 mps 657 mmHg 15%
    14:00 +31°C° 0 mm 3 mps 657 mmHg 15%
    15:00 +31°C° 0 mm 2 mps 657 mmHg 16%
    16:00 +30°C° 0 mm 2 mps 656 mmHg 16%
    17:00 +30°C° 0 mm 2 mps 656 mmHg 17%
    18:00 +28°C° 0 mm 2 mps 656 mmHg 21%
    19:00 +25°C° 0 mm 1 mps 656 mmHg 25%
    20:00 +23°C° 0 mm 1 mps 655 mmHg 29%
    21:00 +23°C° 0 mm 1 mps 655 mmHg 29%
    22:00 +22°C° 0 mm 1 mps 655 mmHg 28%
    23:00 +21°C° 0 mm 2 mps 655 mmHg 27%

    Day after tomorrow, 22 September, Friday

    Time Temperature Precipitation Wind Pressure Humidity
    00:00 +21°C° 0 mm 2 mps 655 mmHg 27%
    01:00 +20°C° 0 mm 2 mps 655 mmHg 28%
    02:00 +20°C° 0 mm 2 mps 655 mmHg 28%
    03:00 +19°C° 0 mm 2 mps 655 mmHg 28%
    04:00 +19°C° 0 mm 2 mps 655 mmHg 28%
    05:00 +19°C° 0 mm 2 mps 655 mmHg 28%
    06:00 +21°C° 0 mm 2 mps 656 mmHg 26%
    07:00 +23°C° 0 mm 2 mps 657 mmHg 24%
    08:00 +25°C° 0 mm 2 mps 658 mmHg 22%
    09:00 +26°C° 0 mm 2 mps 658 mmHg 20%
    10:00 +28°C° 0 mm 2 mps 658 mmHg 18%
    11:00 +29°C° 0 mm 2 mps 658 mmHg 16%
    12:00 +30°C° 0 mm 2 mps 658 mmHg 16%
    13:00 +30°C° 0 mm 3 mps 658 mmHg 15%
    14:00 +31°C° 0 mm 3 mps 658 mmHg 15%
    15:00 +30°C° 0 mm 3 mps 657 mmHg 16%
    16:00 +30°C° 0 mm 2 mps 657 mmHg 17%
    17:00 +29°C° 0 mm 2 mps 657 mmHg 18%
    18:00 +27°C° 0 mm 2 mps 657 mmHg 23%
    19:00 +25°C° 0 mm 1 mps 657 mmHg 27%
    20:00 +23°C° 0 mm 1 mps 657 mmHg 31%
    21:00 +23°C° 0 mm 1 mps 657 mmHg 30%
    22:00 +22°C° 0 mm 1 mps 657 mmHg 30%
    23:00 +22°C° 0 mm 1 mps 657 mmHg 29%

    23 September, Saturday

    Time Temperature Precipitation Wind Pressure Humidity
    00:00 +21°C° 0 mm 2 mps 657 mmHg 29%
    01:00 +20°C° 0 mm 2 mps 656 mmHg 29%
    02:00 +20°C° 0 mm 2 mps 656 mmHg 30%
    03:00 +19°C° 0 mm 2 mps 656 mmHg 30%
    04:00 +19°C° 0 mm 2 mps 656 mmHg 31%
    05:00 +19°C° 0 mm 2 mps 656 mmHg 32%
    06:00 +21°C° 0 mm 2 mps 657 mmHg 30%
    07:00 +23°C° 0 mm 2 mps 658 mmHg 27%
    08:00 +25°C° 0 mm 2 mps 658 mmHg 25%
    09:00 +26°C° 0 mm 2 mps 659 mmHg 23%
    10:00 +28°C° 0 mm 2 mps 659 mmHg 20%
    11:00 +29°C° 0 mm 2 mps 659 mmHg 18%
    12:00 +29°C° 0 mm 2 mps 659 mmHg 18%
    13:00 +30°C° 0 mm 2 mps 659 mmHg 17%
    14:00 +31°C° 0 mm 3 mps 658 mmHg 17%
    15:00 +30°C° 0 mm 2 mps 658 mmHg 18%
    16:00 +30°C° 0 mm 2 mps 658 mmHg 18%
    17:00 +30°C° 0 mm 2 mps 658 mmHg 19%
    18:00 +27°C° 0 mm 1 mps 658 mmHg 23%
    19:00 +25°C° 0 mm 1 mps 658 mmHg 27%
    20:00 +21°C° 0 mm 0 mps 657 mmHg 32%
    21:00 +23°C° 0 mm 1 mps 657 mmHg 32%
    22:00 +22°C° 0 mm 1 mps 657 mmHg 32%
    23:00 +22°C° 0 mm 1 mps 657 mmHg 32%

    24 September, Sunday

    Time Temperature Precipitation Wind Pressure Humidity
    00:00 +21°C° 0 mm 1 mps 657 mmHg 32%
    01:00 +21°C° 0 mm 1 mps 657 mmHg 32%
    02:00 +20°C° 0 mm 2 mps 657 mmHg 32%
    03:00 +19°C° 0 mm 2 mps 657 mmHg 31%
    04:00 +19°C° 0 mm 2 mps 657 mmHg 31%
    05:00 +19°C° 0 mm 2 mps 656 mmHg 31%
    06:00 +21°C° 0 mm 2 mps 657 mmHg 28%
    07:00 +23°C° 0 mm 1 mps 658 mmHg 26%
    08:00 +25°C° 0 mm 1 mps 659 mmHg 23%
    09:00 +26°C° 0 mm 1 mps 659 mmHg 21%
    10:00 +28°C° 0 mm 2 mps 659 mmHg 19%
    11:00 +29°C° 0 mm 2 mps 659 mmHg 18%
    12:00 +29°C° 0 mm 2 mps 659 mmHg 17%
    13:00 +30°C° 0 mm 2 mps 658 mmHg 17%
    14:00 +30°C° 0 mm 3 mps 658 mmHg 17%
    15:00 +30°C° 0 mm 2 mps 658 mmHg 17%
    16:00 +30°C° 0 mm 2 mps 658 mmHg 18%
    17:00 +29°C° 0 mm 2 mps 658 mmHg 19%
    18:00 +27°C° 0 mm 1 mps 658 mmHg 23%
    19:00 +25°C° 0 mm 1 mps 657 mmHg 27%
    20:00 +21°C° 0 mm 0 mps 657 mmHg 31%
    21:00 +22°C° 0 mm 1 mps 657 mmHg 30%
    22:00 +22°C° 0 mm 1 mps 657 mmHg 30%
    23:00 +22°C° 0 mm 1 mps 657 mmHg 29%

    25 September, Monday

    Time Temperature Precipitation Wind Pressure Humidity
    00:00 +21°C° 0 mm 1 mps 657 mmHg 29%
    01:00 +20°C° 0 mm 2 mps 657 mmHg 28%
    02:00 +19°C° 0 mm 2 mps 656 mmHg 28%
    03:00 +19°C° 0 mm 2 mps 656 mmHg 28%
    04:00 +19°C° 0 mm 2 mps 656 mmHg 27%
    05:00 +19°C° 0 mm 2 mps 656 mmHg 27%
    06:00 +20°C° 0 mm 2 mps 657 mmHg 25%
    07:00 +23°C° 0 mm 2 mps 657 mmHg 23%
    08:00 +25°C° 0 mm 2 mps 658 mmHg 21%
    09:00 +26°C° 0 mm 2 mps 658 mmHg 19%
    10:00 +27°C° 0 mm 2 mps 658 mmHg 18%
    11:00 +29°C° 0 mm 2 mps 659 mmHg 16%
    12:00 +29°C° 0 mm 2 mps 658 mmHg 16%
    13:00 +30°C° 0 mm 2 mps 658 mmHg 15%
    14:00 +30°C° 0 mm 3 mps 658 mmHg 15%
    15:00 +30°C° 0 mm 2 mps 658 mmHg 16%
    16:00 +29°C° 0 mm 2 mps 658 mmHg 16%
    17:00 +29°C° 0 mm 2 mps 658 mmHg 17%
    18:00 +27°C° 0 mm 2 mps 657 mmHg 21%
    19:00 +25°C° 0 mm 1 mps 657 mmHg 25%
    20:00 +22°C° 0 mm 1 mps 657 mmHg 28%
    21:00 +22°C° 0 mm 1 mps 657 mmHg 28%
    22:00 +22°C° 0 mm 1 mps 657 mmHg 28%
    23:00 +20°C° 0 mm 2 mps 657 mmHg 28%
    Show more